This demonstration page uses our WeatherBlox Daily Observations layout. Learn more.

40.92945, -100.16068

Hourly Observations for March 28, 2018

Temp ( °F °C ) Dew Point ( °F °C ) Humidity (%) Winds ( mph kmh ) Pressure ( in mb ) Visibility ( mi km ) Precip ( " mm )
12:15 am 00:15 Clear 40 4.6 29 -1.5 65 65 S 9 15 30.06 1018 10 16.0934 0 0
12:35 am 00:35 Clear 40 4.2 29 -1.5 67 67 S 9 15 30.03 1017 10 16.0934 0 0
12:55 am 00:55 Clear 38 3.6 29 -1.6 69 69 S 9 15 30.03 1017 10 16.0934 0 0
1:15 am 01:15 Clear 38 3.6 29 -1.5 70 70 S 8 13 30.03 1017 10 16.0934 0 0
1:35 am 01:35 Clear 37 2.9 29 -1.6 73 73 S 9 15 30.06 1018 10 16.0934 0 0
1:55 am 01:55 Clear 37 2.7 29 -1.6 74 74 SSW 3 6 30.03 1017 10 16.0934 0 0
2:15 am 02:15 Clear 35 1.7 28 -2.1 76 76 S 9 15 30.03 1017 10 16.0934 0 0
2:35 am 02:35 Clear 35 1.5 29 -1.9 78 78 S 10 17 30.03 1017 10 16.0934 0 0
2:55 am 02:55 Clear 36 2 29 -1.7 77 77 S 8 13 30.03 1017 10 16.0934 0 0
3:15 am 03:15 Clear 35 1.9 29 -1.6 78 78 S 9 15 30 1016 10 16.0934 0 0
3:35 am 03:35 Clear 35 1.6 29 -1.6 80 80 S 8 13 30 1016 10 16.0934 0 0
3:55 am 03:55 Clear 36 2 30 -1.3 79 79 S 6 9 30 1016 10 16.0934 0 0
4:15 am 04:15 Clear 37 3 30 -1.2 74 74 S 5 7 29.97 1015 10 16.0934 0 0
4:35 am 04:35 Clear 38 3.1 30 -1 75 75 WSW 5 7 29.94 1014 10 16.0934 0 0
4:55 am 04:55 Clear 37 2.6 29 -1.4 75 75 WSW 6 9 29.94 1014 10 16.0934 0 0
5:15 am 05:15 Clear 35 1.7 29 -1.7 78 78 Calm 29.97 1015 10 16.0934 0 0
5:35 am 05:35 Clear 37 2.6 29 -1.4 75 75 SSW 6 9 29.91 1013 10 16.0934 0 0
5:55 am 05:55 Clear 34 1 28 -2 81 81 S 5 7 29.94 1014 10 16.0934 0 0
6:15 am 06:15 Clear 34 1.1 29 -1.6 82 82 Calm 29.94 1014 10 16.0934 0 0
6:35 am 06:35 Clear 33 0.7 28 -2.2 81 81 Calm 29.94 1014 10 16.0934 0 0
6:55 am 06:55 Clear 33 0.7 29 -1.9 83 83 S 5 7 29.94 1014 10 16.0934 0 0
7:15 am 07:15 Clear 32 -0.2 27 -3 82 82 Calm 29.94 1014 10 16.0934 0 0
7:35 am 07:35 Sunny 32 -0.2 28 -2.1 87 87 Calm 29.94 1014 10 16.0934 0 0
7:55 am 07:55 Sunny 30 -1.3 26 -3.4 86 86 Calm 29.97 1015 10 16.0934 0 0
8:15 am 08:15 Sunny 30 -1.1 27 -2.7 89 89 Calm 30 1016 10 16.0934 0 0
8:35 am 08:35 Sunny 33 0.8 31 -0.8 89 89 Calm 29.97 1015 10 16.0934 0 0
8:55 am 08:55 Sunny 37 2.8 32 0 82 82 Calm 29.94 1014 10 16.0934 0 0
9:15 am 09:15 Sunny 41 4.8 33 0.5 74 74 WNW 7 11 29.97 1015 10 16.0934 0 0
9:35 am 09:35 Sunny 42 5.3 33 0.3 70 70 W 8 13 29.97 1015 10 16.0934 0 0
9:55 am 09:55 Sunny 43 6.3 33 0.4 66 66 WSW 6 9 29.91 1013 10 16.0934 0 0
10:15 am 10:15 Sunny 45 7.1 33 0.7 64 64 W 6 9 29.91 1013 10 16.0934 0 0
10:35 am 10:35 Sunny 47 8.5 34 1 60 60 NW 7 11 29.91 1013 10 16.0934 0 0
10:55 am 10:55 Sunny 49 9.4 34 1 56 56 NW 8 13 29.88 1012 10 16.0934 0 0
11:15 am 11:15 Sunny 51 10.5 33 0.4 50 50 NNW 12 19 29.88 1012 10 16.0934 0 0
11:35 am 11:35 Sunny 52 11.3 33 0.4 47 47 N 8 13 29.88 1012 10 16.0934 0 0
11:55 am 11:55 Sunny 55 12.9 32 0 41 41 NNE 8 13 29.83 1010 10 16.0934 0 0
12:15 pm 12:15 Sunny 57 14 31 -0.6 37 37 N 10 17 29.83 1010 10 16.0934 0 0
12:35 pm 12:35 Sunny 57 14.1 31 -0.4 37 37 NE 9 15 29.83 1010 10 16.0934 0 0
12:55 pm 12:55 Sunny 58 14.5 32 -0.2 37 37 NNE 10 17 29.83 1010 10 16.0934 0 0
1:15 pm 13:15 Sunny 58 14.6 31 -0.3 36 36 NNE 15 24 29.83 1010 10 16.0934 0 0
1:35 pm 13:35 Sunny 60 15.4 32 0 35 35 NE 15 24 29.8 1009 10 16.0934 0 0
1:55 pm 13:55 Partly Cloudy 58 14.6 31 -0.5 36 36 NE 15 24 29.83 1010 10 16.0934 0 0
2:15 pm 14:15 Mostly Cloudy 58 14.7 31 -0.4 36 36 NNE 16 26 29.83 1010 10 16.0934 0 0
2:35 pm 14:35 Cloudy 58 14.6 31 -0.6 35 35 NNE 13 20 29.83 1010 10 16.0934 0 0
2:55 pm 14:55 Cloudy 56 13.5 33 0.4 41 41 N 22 35 29.83 1010 10 16.0934 0 0
3:15 pm 15:15 Cloudy 55 13 35 1.4 45 45 N 22 35 29.83 1010 10 16.0934 0 0
3:35 pm 15:35 Mostly Cloudy 56 13.6 34 1.2 43 43 NNE 22 35 29.83 1010 10 16.0934 0 0
3:55 pm 15:55 Cloudy 55 12.8 35 1.6 47 47 N 23 37 29.83 1010 10 16.0934 0 0
4:15 pm 16:15 Cloudy 55 12.6 37 2.7 51 51 N 23 37 29.83 1010 10 16.0934 0 0
4:35 pm 16:35 Cloudy 53 11.9 37 2.9 54 54 N 23 37 29.83 1010 10 16.0934 0 0
4:55 pm 16:55 Cloudy 53 11.5 38 3.1 57 57 N 24 39 29.88 1012 10 16.0934 0 0
5:15 pm 17:15 Cloudy 52 11.2 37 2.7 56 56 N 23 37 29.88 1012 10 16.0934 0 0
5:35 pm 17:35 Cloudy 50 10.2 39 4 66 66 N 20 31 29.88 1012 10 16.0934 0 0
5:55 pm 17:55 Cloudy 50 10 38 3.2 63 63 N 21 33 29.88 1012 10 16.0934 0 0
6:15 pm 18:15 Cloudy 49 9.7 37 2.5 61 61 N 20 31 29.88 1012 10 16.0934 0 0
6:35 pm 18:35 Cloudy 49 9.5 36 2 60 60 NNE 16 26 29.91 1013 10 16.0934 0 0
6:55 pm 18:55 Cloudy 50 9.8 34 1.2 55 55 NNE 16 26 29.91 1013 10 16.0934 0 0
7:15 pm 19:15 Cloudy 49 9.6 33 0.7 54 54 NNE 14 22 29.91 1013 10 16.0934 0 0
7:35 pm 19:35 Cloudy 49 9.5 33 0.6 54 54 NNE 10 17 29.91 1013 10 16.0934 0 0
7:55 pm 19:55 Cloudy 48 9.1 32 0 53 53 NNE 14 22 29.91 1013 10 16.0934 0 0
8:15 pm 20:15 Partly Cloudy 47 8.4 33 0.5 58 58 NNE 12 19 29.94 1014 10 16.0934 0 0
8:35 pm 20:35 Mostly Cloudy 46 7.9 33 0.8 61 61 NNE 12 19 29.97 1015 10 16.0934 0 0
8:55 pm 20:55 Mostly Cloudy 45 7.1 33 0.5 63 63 NNE 8 13 29.97 1015 10 16.0934 0 0
9:15 pm 21:15 Partly Cloudy 43 6.1 33 0.3 67 67 NNE 7 11 30.03 1017 10 16.0934 0 0
9:35 pm 21:35 Cloudy 42 5.8 33 0.6 70 70 NE 7 11 30.03 1017 10 16.0934 0 0
9:55 pm 21:55 Mostly Cloudy 42 5.4 33 0.5 71 71 NE 7 11 30.06 1018 10 16.0934 0 0
10:15 pm 22:15 Partly Cloudy 40 4.2 32 0.1 75 75 NE 9 15 30.06 1018 10 16.0934 0 0
10:35 pm 22:35 Clear 40 4.2 32 0.2 75 75 NE 7 11 30.06 1018 10 16.0934 0 0
10:55 pm 22:55 Clear 39 3.8 32 0.2 78 78 NE 7 11 30.06 1018 10 16.0934 0 0
11:15 pm 23:15 Clear 38 3.3 32 0 79 79 NE 6 9 30.09 1019 10 16.0934 0 0
11:35 pm 23:35 Clear 37 2.7 32 0 83 83 ENE 6 9 30.12 1020 10 16.0934 0 0
11:55 pm 23:55 Clear 37 2.6 32 -0.1 83 83 NE 5 7 30.09 1019 10 16.0934 0 0

Powered by AerisWeather